MMS 2 (40483 NORAD) Tracking and Keplerian Element Data

This shows tracking and keplerian element data for the satellite.

Feedback or suggestion? Click here.




ElementValue
Catalog40483
NameMMS 2
Epoch Orbit904
Epoch Day197.70833333
Epoch Year2018
RAAN315.1855
Inclination8.1162
Eccentricity0.9086859
Argument of Perigee164.16
Mean Anonmoly266.9945
Mean Motion0.35513492
Decay Rate-1.269E-05
L11 40483U 15011B 18197.70833333 -.00001269 00000-0 00000+0 0 9991
L22 40483 8.1162 315.1855 9086859 164.1600 266.9945 0.35513492 9046

Live tracking and technical data element details for MMS 2 (NORAD 40483). MMS 2 can be tracked NOW for your location showing map with azimuth and elevation plus other details from your city location.

Track the satellite on the map from your city or location and see movement details for azimuth, elevation, latitude, longitude, range, height, and movement on the map or in text.







IsCatalogInMostPopularTable: catalog: 40483, numindb: 55
Update: records affected: 1



GetName: 40483 MMS 2

Hit Count: updated at: Thu, 19 Jul 2018 03:58:33 GMT